Ozona, TX

1:48 AM CDT on July 21, 2017 (GMT -0500)
Ozona Municipal

Weather History for KOZA - November, 2011

Change the Weather History Date:

Monday, November 7, 2011

  Actual Average Record
Temperature  
Mean Temperature 74 °F -  
Max Temperature 81 °F 67 °F 81 °F (2011)
Min Temperature 67 °F 42 °F 33 °F (2013)
Cooling Degree Days 9    
Growing Degree Days 24 (Base 50)    
Moisture  
Dew Point 62 °F    
Average Humidity 68    
Maximum Humidity 86    
Minimum Humidity 41    
Precipitation  
Precipitation 0.00 in - - ()
Sea Level Pressure  
Sea Level Pressure 29.92 in    
Wind  
Wind Speed 16 mph (South)    
Max Wind Speed 24 mph    
Max Gust Speed 34 mph    
Visibility 10 miles    
Events      
Averages and records for this station are not official NWS values.
T = Trace of Precipitation, MM = Missing Value Source: NWS Daily Summary

Daily Weather History Graph

Daily Weather History Graph

Search for Another Location

Airport or City:

Trip Planner

Search our weather history database for the weather conditions in past years. The results will help you decide how hot, cold, wet, or windy it might be!

Date:

Astronomy

Nov. 07, 2011 Rise Set
Actual Time 7:04 AM CST 5:52 PM CST
Civil Twilight 6:39 AM CST 6:17 PM CST
Nautical Twilight 6:10 AM CST 6:46 PM CST
Astronomical Twilight 5:42 AM CST 7:14 PM CST
Moon 3:57 PM CST (11/7) 4:17 AM CST (11/7)
Length of Visible Light 11h 38m
Length of Day
10h 47m
Waxing Gibbous, 92% of the Moon is Illuminated
Nov 7
Waxing Gibbous
Nov 10
Full
Nov 18
Last Quarter
Nov 25
New
Dec 2
First Quarter

Hourly Weather History & Observations

Time (CST) Temp. Heat Index Dew Point Humidity Pressure Visibility Wind Dir Wind Speed Gust Speed Precip Events Conditions
12:15 AM 67.6 °F - 62.4 °F 83% 29.98 in 10.0 mi SSE 13.8 mph 19.6 mph N/A   Scattered Clouds
12:35 AM 67.8 °F - 63.0 °F 84% 29.98 in 10.0 mi SSE 18.4 mph 21.9 mph N/A   Mostly Cloudy
12:55 AM 68.7 °F - 63.9 °F 84% 29.98 in 10.0 mi SSE 13.8 mph 20.7 mph N/A   Overcast
1:15 AM 69.1 °F - 64.4 °F 85% 29.97 in 10.0 mi South 13.8 mph 19.6 mph N/A   Overcast
1:35 AM 69.3 °F - 64.4 °F 84% 29.97 in 10.0 mi SSE 15.0 mph - N/A   Overcast
1:55 AM 69.3 °F - 64.4 °F 84% 29.97 in 10.0 mi South 12.7 mph 18.4 mph N/A   Overcast
2:15 AM 69.6 °F - 64.6 °F 84% 29.97 in 10.0 mi South 15.0 mph - N/A   Overcast
2:35 AM 69.8 °F - 64.6 °F 83% 29.97 in 10.0 mi South 18.4 mph 23.0 mph N/A   Overcast
2:55 AM 69.8 °F - 64.4 °F 83% 29.96 in 10.0 mi South 13.8 mph 20.7 mph N/A   Overcast
3:15 AM 69.8 °F - 64.4 °F 83% 29.95 in 10.0 mi South 12.7 mph 21.9 mph N/A   Overcast
3:35 AM 69.8 °F - 64.4 °F 83% 29.95 in 10.0 mi South 13.8 mph 19.6 mph N/A   Overcast
3:55 AM 69.8 °F - 64.4 °F 83% 29.95 in 10.0 mi South 18.4 mph 23.0 mph N/A   Mostly Cloudy
4:15 AM 69.4 °F - 64.2 °F 83% 29.95 in 10.0 mi South 15.0 mph - N/A   Overcast
4:35 AM 69.4 °F - 64.4 °F 84% 29.95 in 10.0 mi South 17.3 mph 20.7 mph N/A   Overcast
4:55 AM 69.3 °F - 64.2 °F 84% 29.95 in 10.0 mi South 10.4 mph - N/A   Overcast
5:15 AM 68.9 °F - 63.9 °F 84% 29.95 in 10.0 mi South 12.7 mph 18.4 mph N/A   Mostly Cloudy
5:35 AM 68.9 °F - 63.9 °F 84% 29.95 in 10.0 mi South 9.2 mph 18.4 mph N/A   Overcast
6:15 AM 68.9 °F - 64.0 °F 84% 29.95 in 10.0 mi South 13.8 mph 18.4 mph N/A   Mostly Cloudy
6:35 AM 68.9 °F - 64.0 °F 84% 29.96 in 10.0 mi South 13.8 mph 24.2 mph N/A   Mostly Cloudy
7:15 AM 68.9 °F - 64.0 °F 84% 29.95 in 10.0 mi South 15.0 mph 23.0 mph N/A   Mostly Cloudy
7:35 AM 68.9 °F - 64.4 °F 86% 29.95 in 10.0 mi SSE 16.1 mph 24.2 mph N/A   Mostly Cloudy
7:55 AM 69.3 °F - 64.4 °F 84% 29.95 in 10.0 mi South 17.3 mph 26.5 mph N/A   Mostly Cloudy
8:15 AM 69.8 °F - 64.6 °F 83% 29.97 in 10.0 mi South 20.7 mph 26.5 mph N/A   Overcast
8:35 AM 70.2 °F - 64.6 °F 82% 29.97 in 10.0 mi South 18.4 mph 26.5 mph N/A   Overcast
9:35 AM 72.0 °F - 64.2 °F 77% 29.98 in 10.0 mi South 24.2 mph 31.1 mph N/A   Mostly Cloudy
9:55 AM 73.0 °F - 63.9 °F 73% 29.98 in 10.0 mi South 24.2 mph 29.9 mph N/A   Mostly Cloudy
10:15 AM 74.1 °F - 63.5 °F 69% 29.98 in 10.0 mi South 20.7 mph 33.4 mph N/A   Scattered Clouds
10:35 AM 74.7 °F - 63.1 °F 67% 29.97 in 10.0 mi South 23.0 mph 34.5 mph N/A   Mostly Cloudy
10:55 AM 75.2 °F - 63.1 °F 66% 29.97 in 10.0 mi South 23.0 mph 31.1 mph N/A   Mostly Cloudy
11:15 AM 76.5 °F - 62.8 °F 62% 29.97 in 10.0 mi South 23.0 mph 27.6 mph N/A   Mostly Cloudy
11:35 AM 77.5 °F - 62.6 °F 60% 29.96 in 10.0 mi South 19.6 mph 32.2 mph N/A   Mostly Cloudy
11:55 AM 78.3 °F - 61.9 °F 57% 29.94 in 10.0 mi South 24.2 mph 33.4 mph N/A   Mostly Cloudy
12:15 PM 79.2 °F - 61.3 °F 54% 29.93 in 10.0 mi South 21.9 mph 31.1 mph N/A   Mostly Cloudy
12:35 PM 79.3 °F - 60.4 °F 52% 29.93 in 10.0 mi South 18.4 mph 31.1 mph N/A   Mostly Cloudy
12:55 PM 79.7 °F - 59.5 °F 50% 29.92 in 10.0 mi South 19.6 mph 28.8 mph N/A   Mostly Cloudy
1:15 PM 79.3 °F - 59.4 °F 50% 29.90 in 10.0 mi South 17.3 mph 25.3 mph N/A   Mostly Cloudy
1:35 PM 79.5 °F - 58.6 °F 49% 29.89 in 10.0 mi South 21.9 mph 26.5 mph N/A   Mostly Cloudy
1:55 PM 80.2 °F 80.7 °F 58.1 °F 47% 29.88 in 10.0 mi South 18.4 mph 28.8 mph N/A   Scattered Clouds
2:15 PM 79.9 °F - 57.9 °F 47% 29.87 in 10.0 mi South 18.4 mph 25.3 mph N/A   Mostly Cloudy
2:35 PM 80.8 °F 80.9 °F 57.0 °F 44% 29.86 in 10.0 mi South 17.3 mph 21.9 mph N/A   Mostly Cloudy
2:55 PM 81.7 °F 81.3 °F 55.8 °F 41% 29.85 in 10.0 mi South 15.0 mph 27.6 mph N/A   Scattered Clouds
3:15 PM 81.7 °F 81.3 °F 56.1 °F 41% 29.85 in 10.0 mi South 19.6 mph 25.3 mph N/A   Mostly Cloudy
3:35 PM 81.0 °F 80.8 °F 55.6 °F 42% 29.86 in 10.0 mi South 15.0 mph 25.3 mph N/A   Scattered Clouds
3:55 PM 81.0 °F 80.8 °F 56.1 °F 42% 29.85 in 10.0 mi South 15.0 mph 24.2 mph N/A   Mostly Cloudy
4:35 PM 79.7 °F - 56.5 °F 45% 29.86 in 10.0 mi South 16.1 mph 23.0 mph N/A   Scattered Clouds
4:55 PM 78.6 °F - 57.6 °F 48% 29.86 in 10.0 mi SSE 15.0 mph 23.0 mph N/A   Clear
5:15 PM 77.7 °F - 57.4 °F 49% 29.86 in 10.0 mi SSE 16.1 mph 24.2 mph N/A   Scattered Clouds
5:35 PM 76.6 °F - 57.4 °F 51% 29.86 in 10.0 mi South 15.0 mph 19.6 mph N/A   Scattered Clouds
5:55 PM 75.2 °F - 58.3 °F 56% 29.87 in 10.0 mi South 13.8 mph - N/A   Clear
6:15 PM 74.1 °F - 59.2 °F 59% 29.88 in 10.0 mi South 15.0 mph 20.7 mph N/A   Clear
6:35 PM 73.6 °F - 59.4 °F 61% 29.88 in 10.0 mi South 13.8 mph 20.7 mph N/A   Clear
6:55 PM 73.0 °F - 59.9 °F 63% 29.89 in 10.0 mi SSE 17.3 mph 20.7 mph N/A   Clear
7:15 PM 72.5 °F - 60.1 °F 65% 29.89 in 10.0 mi South 13.8 mph - N/A   Clear
7:35 PM 72.0 °F - 60.1 °F 66% 29.89 in 10.0 mi SSE 13.8 mph - N/A   Clear
7:55 PM 71.1 °F - 60.1 °F 68% 29.89 in 10.0 mi SSE 12.7 mph 17.3 mph N/A   Clear
8:15 PM 70.7 °F - 61.2 °F 72% 29.88 in 10.0 mi SSE 16.1 mph - N/A   Clear
8:35 PM 70.7 °F - 62.1 °F 74% 29.88 in 10.0 mi SSE 13.8 mph 19.6 mph N/A   Clear
8:55 PM 70.2 °F - 62.4 °F 76% 29.88 in 10.0 mi SSE 17.3 mph 21.9 mph N/A   Clear
9:15 PM 69.8 °F - 62.8 °F 78% 29.88 in 10.0 mi SSE 15.0 mph 21.9 mph N/A   Clear
9:55 PM 69.3 °F - 62.8 °F 80% 29.88 in 10.0 mi South 19.6 mph 26.5 mph N/A   Clear
10:15 PM 69.3 °F - 62.8 °F 80% 29.88 in 10.0 mi South 17.3 mph 24.2 mph N/A   Clear
10:35 PM 69.4 °F - 62.8 °F 79% 29.88 in 10.0 mi South 17.3 mph 28.8 mph N/A   Clear
10:55 PM 69.3 °F - 62.8 °F 80% 29.88 in 10.0 mi South 17.3 mph 23.0 mph N/A   Scattered Clouds
11:15 PM 69.8 °F - 62.8 °F 78% 29.88 in 10.0 mi South 19.6 mph 26.5 mph N/A   Overcast
11:35 PM 70.2 °F - 63.0 °F 78% 29.88 in 10.0 mi South 16.1 mph 25.3 mph N/A   Overcast
11:55 PM 70.3 °F - 63.0 °F 77% 29.88 in 10.0 mi South 17.3 mph 24.2 mph N/A   Overcast